Time,TemperatureF,DewpointF,PressureIn,WindDirection,WindDirectionDegrees,WindSpeedMPH,WindSpeedGustMPH,Humidity,HourlyPrecipIn,Conditions,Clouds,dailyrainin,SoftwareType,DateUTC
2013-05-06 00:01:00,54.0,37.0,-100.00,SSW,210,1.0,2.0,52,-99.99,,,-99.99,,2013-05-06 07:01:00,
2013-05-06 00:11:00,54.0,37.0,-100.00,SSW,210,1.0,2.0,52,-99.99,,,-99.99,,2013-05-06 07:11:00,
2013-05-06 02:01:00,49.0,37.0,-100.00,SSE,165,1.0,1.0,63,-99.99,,,-99.99,,2013-05-06 09:01:00,
2013-05-06 02:11:00,49.0,37.0,-100.00,SSE,165,1.0,1.0,63,-99.99,,,-99.99,,2013-05-06 09:11:00,
2013-05-06 04:02:00,46.0,37.0,-100.00,ENE,70,1.0,3.0,70,-99.99,,,-99.99,,2013-05-06 11:02:00,
2013-05-06 04:12:00,46.0,37.0,-100.00,ENE,70,1.0,3.0,70,-99.99,,,-99.99,,2013-05-06 11:12:00,
2013-05-06 06:01:00,45.0,37.0,-100.00,NE,35,1.0,5.0,73,-99.99,,,-99.99,,2013-05-06 13:01:00,
2013-05-06 06:11:00,45.0,37.0,-100.00,NE,35,1.0,5.0,73,-99.99,,,-99.99,,2013-05-06 13:11:00,
2013-05-06 07:01:00,52.0,40.0,-100.00,ENE,65,2.0,6.0,63,-99.99,,,-99.99,,2013-05-06 14:01:00,
2013-05-06 07:11:00,52.0,40.0,-100.00,ENE,65,2.0,6.0,63,-99.99,,,-99.99,,2013-05-06 14:11:00,
2013-05-06 08:01:00,57.0,41.0,-100.00,NE,40,3.0,6.0,54,-99.99,,,-99.99,,2013-05-06 15:01:00,
2013-05-06 08:11:00,57.0,41.0,-100.00,NE,40,3.0,6.0,54,-99.99,,,-99.99,,2013-05-06 15:11:00,
2013-05-06 09:03:00,59.0,42.0,-100.00,NE,40,3.0,8.0,53,-99.99,,,-99.99,,2013-05-06 16:03:00,
2013-05-06 09:13:00,59.0,42.0,-100.00,NE,40,3.0,8.0,53,-99.99,,,-99.99,,2013-05-06 16:13:00,
2013-05-06 10:02:00,63.0,44.0,-100.00,NE,45,5.0,9.0,49,-99.99,,,-99.99,,2013-05-06 17:02:00,
2013-05-06 10:12:00,63.0,44.0,-100.00,NE,45,5.0,9.0,49,-99.99,,,-99.99,,2013-05-06 17:12:00,
2013-05-06 11:01:00,67.0,45.0,-100.00,NE,50,5.0,7.0,45,-99.99,,,-99.99,,2013-05-06 18:01:00,
2013-05-06 11:12:00,67.0,45.0,-100.00,NE,50,5.0,7.0,45,-99.99,,,-99.99,,2013-05-06 18:12:00,
2013-05-06 12:01:00,72.0,48.0,-100.00,ENE,60,3.0,7.0,42,-99.99,,,-99.99,,2013-05-06 19:01:00,
2013-05-06 12:11:00,72.0,48.0,-100.00,ENE,60,3.0,7.0,42,-99.99,,,-99.99,,2013-05-06 19:11:00,
2013-05-06 13:01:00,76.0,49.0,-100.00,NE,40,5.0,8.0,38,-99.99,,,-99.99,,2013-05-06 20:01:00,
2013-05-06 13:11:00,76.0,49.0,-100.00,NE,40,5.0,8.0,38,-99.99,,,-99.99,,2013-05-06 20:11:00,
2013-05-06 14:01:00,78.0,49.0,-100.00,North,10,3.0,8.0,36,-99.99,,,-99.99,,2013-05-06 21:01:00,
2013-05-06 15:03:00,80.0,57.0,-100.00,ENE,70,6.0,9.0,45,-99.99,,,-99.99,,2013-05-06 22:03:00,
2013-05-06 16:02:00,84.0,48.0,-100.00,NNE,15,2.0,5.0,28,-99.99,,,-99.99,,2013-05-06 23:02:00,
2013-05-06 17:01:00,83.0,46.0,-100.00,WNW,285,5.0,9.0,27,-99.99,,,-99.99,,2013-05-07 00:01:00,
2013-05-06 18:01:00,82.0,45.0,-100.00,WSW,245,6.0,9.0,27,-99.99,,,-99.99,,2013-05-07 01:01:00,
2013-05-06 19:02:00,82.0,45.0,-100.00,NNE,25,1.0,5.0,27,-99.99,,,-99.99,,2013-05-07 02:02:00,
2013-05-06 20:01:00,78.0,44.0,-100.00,NW,310,1.0,3.0,29,-99.99,,,-99.99,,2013-05-07 03:01:00,
2013-05-06 20:11:00,78.0,44.0,-100.00,NW,310,1.0,3.0,29,-99.99,,,-99.99,,2013-05-07 03:11:00,
2013-05-06 21:02:00,67.0,42.0,-100.00,South,190,2.0,5.0,40,-99.99,,,-99.99,,2013-05-07 04:02:00,
2013-05-06 21:12:00,67.0,42.0,-100.00,South,190,2.0,5.0,40,-99.99,,,-99.99,,2013-05-07 04:12:00,